Location: Newark
(43.6583°N, 1.6617°E)
Time: 05:12:18
(UTC+00:00)

Vanguard 1 Rocket - Pass Details

Date: 24 August 2019
Orbit: 651 x 4225 km, 34.3° (Epoch: 19 September)

Event Time Altitude Azimuth Distance (km) Brightness Sun altitude
Rises 07:40:07 0° 261° (W) 3,950 10.1 26.5°
Reaches altitude 10° 07:43:32 10° 241° (WSW) 3,410 10.0 27.1°
Maximum altitude 07:49:01 18° 202° (SSW) 3,511 10.4 28.0°
Drops below altitude 10° 07:56:48 10° 166° (SSE) 5,072 11.6 29.4°
Sets 08:03:57 0° 152° (SSE) 6,862 12.4 30.7°
